Regional Weather Roundup
Issued by NWS

Home | Current Version | Previous Version | Graphics & Text | Print | Product List | Glossary On
Versions: 1 2 3 4 5 6 7 8 9 10 11 12 13 14 15 16 17 18 19 20 21 22 23 24 25 26 27 28 29 30 31 32 33 34 35 36 37 38 39 40 41 42 43 44 45 46 47 48 49 50
000
ASUS45 KSLC 021010
RWRUT

UTAH REGIONAL WEATHER ROUNDUP
NATIONAL WEATHER SERVICE SALT LAKE CITY UT
300 AM MST MON MAR 02 2015

UTZ001>011-023>025-021100-

NORTHERN UTAH

CITY           SKY/WX    TMP DP  RH WIND       PRES   REMARKS
BRIGHAM CITY   CLOUDY    32  24  72 N3        29.91F
HILL AFB       CLOUDY    36  25  64 E12       29.87F WCI  27
LOGAN          CLOUDY    29  23  78 N7        29.92F WCI  22
OGDEN          CLOUDY    38  27  64 CALM      29.88F
PROVO AIRPORT  CLOUDY    36  32  87 CALM      29.89F
SALT LAKE CITY CLOUDY    39  31  72 E3        29.89F
VERNAL         LGT SNOW  33  31  92 CALM      29.94F VSB 1
WENDOVER       CLEAR     25  14  63 CALM      29.87F
HEBER CITY     FLURRIES  32  30  93 E3        29.89F
WEST JORDAN    CLOUDY    37  32  81 CALM      29.89F

$$

UTZ012>022-026-027-021100-

SOUTHERN/CENTRAL UTAH

CITY           SKY/WX    TMP DP  RH WIND       PRES   REMARKS
BLANDING       CLOUDY    35  35 100 E5        30.04F WCI  31
BRYCE CANYON   SNOW      28  27  96 SE9       29.87F VSB 1/2 WCI  19
CEDAR CITY     LGT SNOW  31  30  96 CALM      29.83F VSB 3/4
DELTA          CLOUDY    35  35  98 NE3       29.86F
HANKSVILLE     CLOUDY    34  34 100 CALM      29.96F
MILFORD        LGT SNOW  33  31  92 NW5       29.84F VSB 3/4 WCI  29
MOAB/CYNLANDS  CLOUDY    38  35  89 CALM      29.90F
PRICE          LGT SNOW  32  29  88 CALM      29.91F VSB 1
ST GEORGE      CLOUDY    41  36  81 CALM      29.90F
KANAB          CLOUDY    36  36 100 N9        29.89F WCI  29

$$

REGIONAL REPORTS     COLORADO/ARIZONA

CITY           SKY/WX    TMP DP  RH WIND       PRES   REMARKS
CRAIG, CO      LGT SNOW  31  29  92 E7        29.94F VSB 1   WCI  24
GRAND JUNCTION CLOUDY    34  33  96 E8        29.92F WCI  27
RIFLE          SNOW      32  31  96 CALM      29.96F VSB 1/4
MONTROSE       CLOUDY    33  32  96 VRB5      29.98F WCI  29
CORTEZ         CLOUDY    39  36  89 NW5       29.99F
PAGE, AZ       CLOUDY    37  34  89 CALM      29.91F
GRAND CANYON   FLURRIES  37  36  96 S9        29.90F WCI  30
KINGMAN        LGT RAIN  41  39  93 W7        29.87S
FLAGSTAFF      LGT RAIN  38  35  89 SW23G36   29.93F WCI  27

$$

REGIONAL REPORTS    NEVADA/IDAHO/WYOMING

CITY           SKY/WX    TMP DP  RH WIND       PRES   REMARKS
LAS VEGAS, NV  CLOUDY    46  41  82 S7        29.83F
ELY            FLURRIES  29  26  89 N6        29.83F WCI  23
ELKO           CLEAR     24  18  77 NE5       29.84F WCI  18
POCATELLO, ID  CLEAR     20  11  68 CALM      29.94F
BURLEY         CLEAR     21  12  68 CALM      29.90F
EVANSTON, WY   CLOUDY    25  18  74 E6        29.91F WCI  18
ROCK SPRINGS   MOCLDY    21  16  81 E3        29.91F

$$



USA.gov is the U.S. government's official web portal to all federal, state and local government web resources and services.